Waycross, GA

5:19 AM EDT on April 24, 2018 (GMT -0400)
Waycross-Ware County

Weather History for KAYS - April, 2013

Change the Weather History Date:

Wednesday, April 3, 2013

  Actual Average (KAMG) Record (KAMG)
Temperature  
Mean Temperature 62 °F -  
Max Temperature 77 °F 76 °F 90 °F (1967)
Min Temperature 48 °F 50 °F 35 °F (1985)
Degree Days  
Heating Degree Days 2    
Growing Degree Days 12 (Base 50)    
Moisture  
Dew Point 54 °F    
Average Humidity 79    
Maximum Humidity 100    
Minimum Humidity 47    
Precipitation  
Precipitation 0.00 in - - ()
Sea Level Pressure  
Sea Level Pressure 30.08 in    
Wind  
Wind Speed 3 mph (East)    
Max Wind Speed 17 mph    
Max Gust Speed 26 mph    
Visibility 9 miles    
Events      
Averages and records for this station are not official NWS values.
T = Trace of Precipitation, MM = Missing Value Source: NWS Daily Summary

Daily Weather History Graph

Daily Weather History Graph

Search for Another Location

Airport or City:

Astronomy

Apr. 03, 2013 Rise Set
Actual Time 7:15 AM EDT 7:50 PM EDT
Civil Twilight 6:51 AM EDT 8:14 PM EDT
Nautical Twilight 6:22 AM EDT 8:43 PM EDT
Astronomical Twilight 5:53 AM EDT 9:12 PM EDT
Moon 2:30 AM EDT (4/3) 1:24 PM EDT (4/3)
Length of Visible Light 13h 23m
Length of Day
12h 34m
Last Quarter, 45% of the Moon is Illuminated
Apr 3
Last Quarter
Apr 10
New
Apr 18
First Quarter
Apr 25
Full
May 2
Last Quarter

Hourly Weather History & Observations

Time (EDT) Temp. Dew Point Humidity Pressure Visibility Wind Dir Wind Speed Gust Speed Precip Events Conditions
12:15 AM 57.2 °F 48.2 °F 72% 30.10 in 10.0 mi Calm Calm - N/A   Clear
12:35 AM 57.2 °F 48.2 °F 72% 30.10 in 10.0 mi Calm Calm - N/A   Clear
12:55 AM 55.4 °F 50.0 °F 82% 30.09 in 10.0 mi Calm Calm - N/A   Clear
1:15 AM 53.6 °F 50.0 °F 88% 30.09 in 10.0 mi Calm Calm - N/A   Clear
1:35 AM 53.6 °F 48.2 °F 82% 30.08 in 10.0 mi Calm Calm - N/A   Clear
1:55 AM 53.6 °F 50.0 °F 88% 30.08 in 10.0 mi Calm Calm - N/A   Unknown
2:15 AM 53.6 °F 48.2 °F 82% 30.08 in 10.0 mi Calm Calm - N/A   Unknown
2:35 AM 51.8 °F 48.2 °F 88% 30.08 in 10.0 mi Calm Calm - N/A   Unknown
2:55 AM 51.8 °F 48.2 °F 88% 30.07 in 10.0 mi Calm Calm - N/A   Unknown
3:15 AM 51.8 °F 48.2 °F 88% 30.06 in 10.0 mi Calm Calm - N/A   Unknown
3:35 AM 50.0 °F 48.2 °F 94% 30.05 in 10.0 mi Calm Calm - N/A   Unknown
3:55 AM 48.2 °F 48.2 °F 100% 30.04 in 10.0 mi Calm Calm - N/A   Unknown
4:15 AM 48.2 °F 46.4 °F 93% 30.04 in 10.0 mi Calm Calm - N/A   Unknown
4:35 AM 48.2 °F 48.2 °F 100% 30.03 in 10.0 mi Calm Calm - N/A   Unknown
4:55 AM 50.0 °F 48.2 °F 94% 30.04 in 10.0 mi Calm Calm - N/A   Unknown
5:15 AM 50.0 °F 48.2 °F 94% 30.05 in 10.0 mi Calm Calm - N/A   Unknown
5:35 AM 48.2 °F 48.2 °F 100% 30.05 in 10.0 mi Calm Calm - N/A   Unknown
5:55 AM 48.2 °F 48.2 °F 100% 30.06 in 10.0 mi Calm Calm - N/A   Unknown
6:15 AM 50.0 °F 48.2 °F 94% 30.07 in 10.0 mi Calm Calm - N/A   Unknown
6:35 AM 50.0 °F 48.2 °F 94% 30.06 in 10.0 mi Calm Calm - N/A   Unknown
6:55 AM 48.2 °F 48.2 °F 100% 30.07 in 7.0 mi North 4.6 mph - N/A   Clear
7:15 AM 50.0 °F 48.2 °F 94% 30.08 in 10.0 mi Calm Calm - N/A   Scattered Clouds
7:35 AM 51.8 °F 48.2 °F 88% 30.09 in 10.0 mi Calm Calm - N/A   Scattered Clouds
7:55 AM 51.8 °F 48.2 °F 88% 30.10 in 10.0 mi Calm Calm - N/A   Scattered Clouds
8:15 AM 53.6 °F 50.0 °F 88% 30.11 in 10.0 mi Calm Calm - N/A   Scattered Clouds
8:35 AM 53.6 °F 50.0 °F 88% 30.11 in 10.0 mi NNE 3.5 mph - N/A   Scattered Clouds
8:55 AM 55.4 °F 50.0 °F 82% 30.11 in 10.0 mi Calm Calm - N/A   Clear
9:15 AM 59.0 °F 51.8 °F 77% 30.11 in 10.0 mi ENE 4.6 mph - N/A   Clear
9:35 AM 62.6 °F 51.8 °F 68% 30.11 in 10.0 mi NE 8.1 mph - N/A   Scattered Clouds
9:55 AM 64.4 °F 51.8 °F 64% 30.10 in 10.0 mi East 6.9 mph - N/A   Scattered Clouds
10:15 AM 68.0 °F 51.8 °F 56% 30.11 in 10.0 mi ENE 6.9 mph - N/A   Clear
10:35 AM 69.8 °F 53.6 °F 56% 30.11 in 10.0 mi ESE 6.9 mph - N/A   Clear
10:55 AM 69.8 °F 53.6 °F 56% 30.11 in 10.0 mi ENE 6.9 mph - N/A   Clear
11:15 AM 69.8 °F 53.6 °F 56% 30.11 in 10.0 mi East 5.8 mph - N/A   Clear
11:35 AM 69.8 °F 55.4 °F 60% 30.11 in 10.0 mi East 4.6 mph - N/A   Scattered Clouds
11:55 AM 71.6 °F 55.4 °F 57% 30.09 in 10.0 mi East 5.8 mph - N/A   Scattered Clouds
12:15 PM 73.4 °F 55.4 °F 53% 30.09 in 10.0 mi East 5.8 mph - N/A   Clear
12:35 PM 73.4 °F 57.2 °F 57% 30.08 in 10.0 mi East 6.9 mph - N/A   Clear
12:55 PM 75.2 °F 57.2 °F 53% 30.08 in 10.0 mi ENE 5.8 mph - N/A   Clear
1:15 PM 75.2 °F 57.2 °F 53% 30.07 in 10.0 mi East 6.9 mph - N/A   Scattered Clouds
1:35 PM 75.2 °F 57.2 °F 53% 30.07 in 10.0 mi ESE 8.1 mph - N/A   Scattered Clouds
1:55 PM 77.0 °F 57.2 °F 50% 30.07 in 10.0 mi ENE 6.9 mph - N/A   Scattered Clouds
2:15 PM 77.0 °F 55.4 °F 47% 30.07 in 10.0 mi East 8.1 mph - N/A   Scattered Clouds
2:35 PM 75.2 °F 57.2 °F 53% 30.06 in 10.0 mi East 8.1 mph - N/A   Mostly Cloudy
2:55 PM 75.2 °F 57.2 °F 53% 30.06 in 10.0 mi NE 6.9 mph - N/A   Mostly Cloudy
3:15 PM 75.2 °F 57.2 °F 53% 30.06 in 10.0 mi ENE 6.9 mph - N/A   Mostly Cloudy
3:35 PM 75.2 °F 57.2 °F 53% 30.06 in 10.0 mi ENE 5.8 mph - N/A   Mostly Cloudy
3:55 PM 75.2 °F 55.4 °F 50% 30.06 in 10.0 mi East 8.1 mph - N/A   Mostly Cloudy
4:15 PM 75.2 °F 55.4 °F 50% 30.05 in 10.0 mi East 10.4 mph - N/A   Scattered Clouds
4:35 PM 73.4 °F 57.2 °F 57% 30.06 in 10.0 mi ESE 8.1 mph 16.1 mph N/A   Mostly Cloudy
4:55 PM 69.8 °F 60.8 °F 73% 30.06 in 10.0 mi ESE 8.1 mph - N/A   Mostly Cloudy
5:15 PM 69.8 °F 60.8 °F 73% 30.06 in 10.0 mi SE 6.9 mph - N/A   Mostly Cloudy
5:35 PM 68.0 °F 62.6 °F 83% 30.07 in 10.0 mi East 5.8 mph - N/A   Mostly Cloudy
5:55 PM 66.2 °F 62.6 °F 88% 30.09 in 7.0 mi SSE 3.5 mph - N/A   Mostly Cloudy
6:15 PM 66.2 °F 62.6 °F 88% 30.11 in 4.0 mi SE 4.6 mph - N/A   Overcast
6:35 PM 64.4 °F 62.6 °F 94% 30.10 in 4.0 mi SE 3.5 mph - N/A   Overcast
6:55 PM 64.4 °F 60.8 °F 88% 30.11 in 7.0 mi ESE 6.9 mph - N/A   Overcast
7:15 PM 62.6 °F 60.8 °F 94% 30.11 in 7.0 mi SE 6.9 mph - N/A   Overcast
7:35 PM 62.6 °F 60.8 °F 94% 30.10 in 7.0 mi East 6.9 mph - N/A   Overcast
7:55 PM 60.8 °F 59.0 °F 94% 30.10 in 7.0 mi East 9.2 mph - N/A   Overcast
8:15 PM 60.8 °F 57.2 °F 88% 30.09 in 7.0 mi East 10.4 mph - N/A   Overcast
8:35 PM 59.0 °F 57.2 °F 94% 30.09 in 7.0 mi East 12.7 mph 18.4 mph N/A   Overcast
8:55 PM 57.2 °F 57.2 °F 100% 30.07 in 5.0 mi East 17.3 mph - N/A   Overcast
9:15 PM 57.2 °F 57.2 °F 100% 30.05 in 7.0 mi East 16.1 mph 26.5 mph N/A   Scattered Clouds
9:35 PM 57.2 °F 55.4 °F 94% 30.06 in 7.0 mi East 13.8 mph - N/A   Scattered Clouds
9:55 PM 57.2 °F 55.4 °F 94% 30.08 in 7.0 mi ESE 10.4 mph - N/A   Mostly Cloudy
10:15 PM 57.2 °F 55.4 °F 94% 30.09 in 7.0 mi East 9.2 mph - N/A   Overcast
10:35 PM 57.2 °F 55.4 °F 94% 30.10 in 7.0 mi East 9.2 mph - N/A   Overcast
10:55 PM 57.2 °F 55.4 °F 94% 30.13 in 7.0 mi East 8.1 mph - N/A   Overcast
11:15 PM 57.2 °F 55.4 °F 94% 30.11 in 7.0 mi ENE 5.8 mph - N/A   Overcast
11:35 PM 57.2 °F 55.4 °F 94% 30.11 in 7.0 mi East 10.4 mph - N/A   Overcast
11:55 PM 57.2 °F 55.4 °F 94% 30.08 in 10.0 mi ENE 11.5 mph - N/A   Overcast